EW4650 Weather Reports


Display with metric or nautical units.
time (UTC)temp
F
wind
direction
speed
MPH
gust
MPH
rain 1hr
in
rain 24hr
in
rain mn
in
humidity
%
barometer
mb
20191018234817 74 169 0.0 4.0 0.00 0.00 0.00 57 1005.3
20191018233210 75 165 0.0 10.0 0.00 0.00 0.00 55 1005.2
20191018231704 76 213 0.0 8.0 0.00 0.00 0.00 54 1005.1
20191018230206 77 163 0.0 5.0 0.00 0.00 0.00 53 1005.2
20191018224655 77 199 2.0 9.0 0.00 0.00 0.00 52 1005.2
20191018223142 78 146 2.0 9.0 0.00 0.00 0.00 52 1005.3
20191018221806 78 193 0.0 7.0 0.00 0.00 0.00 52 1005.4
20191018220131 78 184 1.0 11.0 0.00 0.00 0.00 51 1005.5
20191018214722 80 173 0.0 9.0 0.00 0.00 0.00 49 1005.5
20191018213210 80 232 0.0 12.0 0.00 0.00 0.00 48 1005.6
20191018211749 80 181 0.0 5.0 0.00 0.00 0.00 49 1005.7
20191018210134 79 223 1.0 12.0 0.00 0.00 0.00 50 1005.8
20191018204759 79 234 2.0 12.0 0.00 0.00 0.00 48 1005.9
20191018203145 78 208 4.0 16.0 0.00 0.00 0.00 49 1006.0
20191018201631 78 210 0.0 14.0 0.00 0.00 0.00 50 1006.1
20191018200143 78 192 1.0 11.0 0.00 0.00 0.00 49 1006.3
20191018194634 77 215 0.0 9.0 0.00 0.00 0.00 49 1006.4
20191018193110 77 186 2.0 13.0 0.00 0.00 0.00 49 1006.7
20191018191728 76 184 2.0 9.0 0.00 0.00 0.00 51 1007.0
20191018190048 75 229 1.0 16.0 0.00 0.00 0.00 53 1007.4
20191018184539 75 225 3.0 14.0 0.00 0.00 0.00 53 1007.7
20191018183100 75 173 0.0 6.0 0.00 0.00 0.00 52 1007.9
20191018181518 73 210 0.0 9.0 0.00 0.00 0.00 53 1008.4
20191018180046 73 252 1.0 12.0 0.00 0.00 0.00 54 1008.9
20191018174530 72 240 4.0 14.0 0.00 0.00 0.00 53 1009.1
20191018173042 72 221 1.0 11.0 0.00 0.00 0.00 54 1009.2
20191018171517 72 208 0.0 10.0 0.00 0.00 0.00 57 1009.5
20191018170014 70 227 0.0 7.0 0.00 0.00 0.00 57 1009.5
20191018164502 69 191 2.0 14.0 0.00 0.00 0.00 60 1009.7
20191018161736 68 184 0.0 5.0 0.00 0.00 0.00 62 1009.8
20191018160212 67 213 0.0 7.0 0.00 0.00 0.00 58 1010.0
20191018154709 67 222 1.0 7.0 0.00 0.00 0.00 54 1010.2
20191018153139 66 198 0.0 4.0 0.00 0.00 0.00 54 1010.3
20191018151645 64 221 0.0 0.0 0.00 0.00 0.00 54 1010.4
20191018150216 63 198 0.0 0.0 0.00 0.00 0.00 54 1010.4
20191018144612 62 163 0.0 4.0 0.00 0.00 0.00 57 1010.3
20191018143103 60 188 0.0 4.0 0.00 0.00 0.00 58 1010.4
20191018141602 59 213 0.0 0.0 0.00 0.00 0.00 60 1010.4
20191018140136 57 207 0.0 0.0 0.00 0.00 0.00 62 1010.3
20191018134548 56 203 0.0 0.0 0.00 0.00 0.00 65 1010.2
20191018133058 55 175 0.0 0.0 0.00 0.00 0.00 68 1010.0
20191018131551 53 174 0.0 0.0 0.00 0.00 0.00 71 1010.2
20191018130133 52 192 0.0 0.0 0.00 0.00 0.00 72 1010.3
20191018124601 51 207 0.0 0.0 0.00 0.00 0.00 73 1010.3
20191018123052 52 207 0.0 0.0 0.00 0.00 0.00 74 1010.3
20191018121521 52 207 0.0 0.0 0.00 0.00 0.00 75 1010.4
20191018120125 53 207 0.0 0.0 0.00 0.00 0.00 75 1010.3
20191018114532 53 208 0.0 0.0 0.00 0.00 0.00 74 1010.5
20191018113020 54 208 0.0 0.0 0.00 0.00 0.00 73 1010.5
20191018111519 54 182 0.0 0.0 0.00 0.00 0.00 73 1010.4
20191018110020 54 175 0.0 0.0 0.00 0.00 0.00 72 1010.1
20191018104534 55 185 0.0 0.0 0.00 0.00 0.00 71 1010.2
20191018103022 55 185 0.0 0.0 0.00 0.00 0.00 71 1010.3
20191018101536 55 177 0.0 0.0 0.00 0.00 0.00 72 1010.2
20191018100008 55 188 0.0 0.0 0.00 0.00 0.00 71 1010.1
20191018094511 55 191 0.0 0.0 0.00 0.00 0.00 70 1010.2
20191018093002 55 190 0.0 0.0 0.00 0.00 0.00 69 1010.4
20191018091510 55 199 0.0 0.0 0.00 0.00 0.00 68 1010.4
20191018090005 56 178 0.0 0.0 0.00 0.00 0.00 67 1010.4
20191018084647 56 175 0.0 0.0 0.00 0.00 0.00 66 1010.4
20191018083133 56 162 0.0 5.0 0.00 0.00 0.00 66 1010.5
20191018081633 56 170 0.0 0.0 0.00 0.00 0.00 64 1010.8
20191018080335 55 174 0.0 0.0 0.00 0.00 0.00 62 1010.9
20191018074650 55 192 0.0 0.0 0.00 0.00 0.00 61 1011.2
20191018073253 55 184 0.0 0.0 0.00 0.00 0.00 60 1011.4
20191018071708 56 180 0.0 0.0 0.00 0.00 0.00 59 1011.4
20191018070112 56 180 0.0 0.0 0.00 0.00 0.00 57 1011.3
20191018064555 56 179 0.0 0.0 0.00 0.00 0.00 56 1011.3
20191018063125 56 178 0.0 0.0 0.00 0.00 0.00 56 1011.3
20191018061624 56 178 0.0 0.0 0.00 0.00 0.00 55 1011.3
20191018060130 56 178 0.0 0.0 0.00 0.00 0.00 56 1011.7
20191018054628 56 178 0.0 0.0 0.00 0.00 0.00 55 1011.8
20191018053113 57 178 0.0 0.0 0.00 0.00 0.00 54 1011.9
20191018051601 57 178 0.0 0.0 0.00 0.00 0.00 54 1012.1
20191018050102 57 180 0.0 0.0 0.00 0.00 0.00 54 1012.3
20191018044603 57 178 0.0 0.0 0.00 0.00 0.00 54 1012.5
20191018043130 58 178 0.0 0.0 0.00 0.00 0.00 52 1012.4
20191018041637 58 169 0.0 1.0 0.00 0.00 0.00 52 1012.4
20191018040042 59 138 0.0 0.0 0.00 0.00 0.00 52 1012.5
20191018034611 59 153 0.0 0.0 0.00 0.00 0.00 52 1012.4
20191018033101 59 171 0.0 0.0 0.00 0.00 0.00 54 1012.5
20191018031531 59 150 0.0 0.0 0.00 0.00 0.00 55 1012.4
20191018030108 60 148 0.0 0.0 0.00 0.00 0.00 55 1012.3
20191018024556 60 150 0.0 0.0 0.00 0.00 0.00 55 1012.4
20191018023054 60 169 0.0 0.0 0.00 0.00 0.00 55 1012.4
20191018021534 61 169 0.0 0.0 0.00 0.00 0.00 55 1012.5
20191018020058 62 169 0.0 0.0 0.00 0.00 0.00 54 1012.4
20191018014540 62 167 0.0 0.0 0.00 0.00 0.00 53 1012.2
20191018013112 62 194 0.0 0.0 0.00 0.00 0.00 55 1012.2
20191018011533 63 194 0.0 0.0 0.00 0.00 0.00 54 1012.0
20191018010057 64 174 0.0 0.0 0.00 0.00 0.00 52 1011.9
20191018004556 65 149 0.0 0.0 0.00 0.00 0.00 49 1011.7
20191018003100 66 148 0.0 2.0 0.00 0.00 0.00 47 1011.8
20191018001622 68 175 0.0 0.0 0.00 0.00 0.00 45 1011.8
20191018000052 69 189 0.0 0.0 0.00 0.00 0.00 44 1011.7